Parkersburg, WV

11:16 PM EST on February 23, 2018 (GMT -0500)
Wood County Wilson

Weather History for KPKB - January, 2013

Change the Weather History Date:

Sunday, January 13, 2013

  Actual Average Record
Temperature  
Mean Temperature 62 °F 31 °F  
Max Temperature 64 °F 40 °F 74 °F (2005)
Min Temperature 60 °F 23 °F -6 °F (1977)
Degree Days  
Heating Degree Days 3 34  
Month to date heating degree days 349 435  
Since 1 July heating degree days 2256 2345  
Cooling Degree Days 0 0  
Month to date cooling degree days 0 0  
Year to date cooling degree days 0 0  
Growing Degree Days 10 (Base 50)    
Moisture  
Dew Point 55 °F    
Average Humidity 78    
Maximum Humidity 84    
Minimum Humidity 72    
Precipitation  
Precipitation 0.01 in 0.09 in 0.95 in (1968)
Month to date precipitation 0.31 1.22  
Year to date precipitation 0.31 1.22  
Sea Level Pressure  
Sea Level Pressure 29.94 in    
Wind  
Wind Speed 8 mph (SSW)    
Max Wind Speed 14 mph    
Max Gust Speed 20 mph    
Visibility 8 miles    
Events Rain    
T = Trace of Precipitation, MM = Missing Value Source: NWS Daily Summary

Daily Weather History Graph

Daily Weather History Graph

Search for Another Location

Airport or City:

Trip Planner

Search our weather history database for the weather conditions in past years. The results will help you decide how hot, cold, wet, or windy it might be!

Date:

Astronomy

Jan. 13, 2013 Rise Set
Actual Time 7:44 AM EST 5:24 PM EST
Civil Twilight 7:15 AM EST 5:54 PM EST
Nautical Twilight 6:41 AM EST 6:27 PM EST
Astronomical Twilight 6:09 AM EST 6:59 PM EST
Moon 8:43 AM EST (1/13) 8:00 PM EST (1/13)
Length of Visible Light 10h 39m
Length of Day
9h 40m
Waxing Crescent, 5% of the Moon is Illuminated
Jan 13
Waxing Crescent
Jan 18
First Quarter
Jan 26
Full
Feb 3
Last Quarter
Feb 10
New

Hourly Weather History & Observations

Time (EST) Temp. Dew Point Humidity Pressure Visibility Wind Dir Wind Speed Gust Speed Precip Events Conditions
12:53 AM 63.0 °F 55.0 °F 75% 29.93 in 10.0 mi SSE 5.8 mph - N/A   Mostly Cloudy
1:53 AM 62.1 °F 55.0 °F 78% 29.91 in 10.0 mi SSE 6.9 mph - N/A   Clear
2:53 AM 61.0 °F 55.0 °F 81% 29.92 in 10.0 mi South 6.9 mph - N/A   Mostly Cloudy
3:53 AM 62.1 °F 55.0 °F 78% 29.88 in 10.0 mi South 8.1 mph - N/A   Clear
4:53 AM 60.1 °F 54.0 °F 80% 29.89 in 10.0 mi South 5.8 mph - N/A   Clear
5:53 AM 60.1 °F 54.0 °F 80% 29.91 in 10.0 mi South 6.9 mph - N/A   Clear
6:53 AM 62.1 °F 53.1 °F 72% 29.92 in 10.0 mi South 11.5 mph - N/A   Mostly Cloudy
7:53 AM 62.1 °F 53.1 °F 72% 29.96 in 10.0 mi South 8.1 mph - N/A   Overcast
8:53 AM 63.0 °F 53.1 °F 70% 29.99 in 10.0 mi SSW 8.1 mph - N/A   Overcast
9:40 AM 62.6 °F 53.6 °F 72% 30.01 in 9.0 mi West 5.8 mph - N/A   Overcast
9:53 AM 62.1 °F 55.0 °F 78% 30.01 in 10.0 mi West 10.4 mph - N/A   Overcast
10:36 AM 60.8 °F 57.2 °F 88% 30.01 in 10.0 mi South 6.9 mph - 0.00 in   Overcast
10:53 AM 62.1 °F 55.9 °F 80% 30.00 in 10.0 mi SSW 9.2 mph - 0.00 in   Mostly Cloudy
11:53 AM 63.0 °F 57.0 °F 81% 29.97 in 10.0 mi South 5.8 mph - N/A   Overcast
12:53 PM 63.0 °F 55.0 °F 75% 29.94 in 10.0 mi South 8.1 mph - N/A   Partly Cloudy
1:53 PM 63.0 °F 54.0 °F 72% 29.92 in 10.0 mi South 8.1 mph - N/A   Overcast
2:53 PM 63.0 °F 55.0 °F 75% 29.95 in 10.0 mi SSW 4.6 mph - 0.01 in Rain Light Rain
3:53 PM 62.1 °F 55.0 °F 78% 29.93 in 10.0 mi SSE 6.9 mph - 0.00 in   Partly Cloudy
4:53 PM 63.0 °F 54.0 °F 72% 29.93 in 10.0 mi South 10.4 mph - N/A   Overcast
5:53 PM 62.1 °F 54.0 °F 75% 29.92 in 10.0 mi South 6.9 mph - N/A   Mostly Cloudy
6:53 PM 61.0 °F 54.0 °F 78% 29.92 in 10.0 mi SSW 4.6 mph - 0.00 in   Overcast
7:42 PM 59.0 °F 55.4 °F 88% 29.94 in 1.8 mi West 6.9 mph - 0.09 in Rain Heavy Rain
7:53 PM 57.9 °F 55.9 °F 93% 29.94 in 1.8 mi West 5.8 mph - 0.16 in Rain Heavy Rain
7:57 PM 57.2 °F 55.4 °F 94% 29.94 in 2.0 mi West 5.8 mph - 0.02 in Rain Rain
8:09 PM 57.2 °F 57.2 °F 100% 29.94 in 2.0 mi Calm Calm - 0.04 in Rain Light Rain
8:53 PM 57.9 °F 57.0 °F 97% 29.92 in 7.0 mi South 3.5 mph - 0.08 in Rain Light Rain
9:53 PM 57.9 °F 55.9 °F 93% 29.92 in 8.0 mi South 10.4 mph - 0.04 in Rain Light Rain
10:53 PM 57.9 °F 55.9 °F 93% 29.92 in 7.0 mi SSE 8.1 mph - 0.05 in Rain Light Rain
11:53 PM 57.9 °F 55.9 °F 93% 29.97 in 4.0 mi WSW 5.8 mph - 0.02 in Rain Light Rain
11:57 PM 57.2 °F 55.4 °F 94% 29.98 in 1.8 mi SSW 6.9 mph - 0.03 in Rain Rain